EW8215 Weather Reports


time (UTC)temp
F
wind
direction
speed
knots
gust
knots
rain 1hr
in
rain 24hr
in
rain mn
in
humidity
%
barometer
mb
20260506232653 62 46 3.5 4.3 0.00 0.01 0.01 83 1013.3
20260506232148 62 341 8.7 12.2 0.00 0.01 0.01 83 1013.2
20260506231646 62 44 6.1 7.8 0.00 0.01 0.01 83 1012.9
20260506231144 62 26 6.1 8.7 0.00 0.01 0.01 83 1013.2
20260506230641 62 268 9.6 13.0 0.00 0.01 0.01 83 1013.3
20260506230137 62 339 7.0 8.7 0.00 0.01 0.01 83 1013.3
20260506225634 62 43 7.0 10.4 0.00 0.01 0.01 83 1013.3
20260506225131 62 99 4.3 6.1 0.00 0.01 0.01 83 1012.9
20260506224627 62 337 7.8 10.4 0.00 0.01 0.01 83 1013.0
20260506224124 62 114 2.6 2.6 0.00 0.01 0.01 84 1013.3
20260506223620 62 359 3.5 6.1 0.00 0.01 0.01 84 1013.0
20260506223116 61 0 5.2 7.8 0.00 0.01 0.01 84 1013.3
20260506222614 61 35 5.2 8.7 0.00 0.01 0.01 83 1013.2
20260506222110 61 344 6.1 10.4 0.00 0.01 0.01 84 1013.2
20260506221608 61 353 12.2 14.8 0.00 0.01 0.01 83 1013.1
20260506221106 61 338 6.1 8.7 0.00 0.01 0.01 83 1013.2
20260506220601 61 338 6.1 7.8 0.00 0.01 0.01 84 1013.3
20260506220057 61 314 8.7 10.4 0.00 0.01 0.01 83 1013.2
20260506215554 61 45 3.5 4.3 0.00 0.01 0.01 84 1013.2
20260506215049 61 10 7.8 8.7 0.00 0.01 0.01 83 1013.2
20260506214547 61 3 10.4 13.0 0.00 0.01 0.01 83 1013.3
20260506214044 62 40 10.4 14.8 0.00 0.01 0.01 83 1013.4
20260506213542 62 324 7.8 8.7 0.00 0.01 0.01 83 1013.4
20260506213039 62 116 4.3 6.1 0.00 0.01 0.01 83 1013.3
20260506212535 62 3 6.1 7.8 0.00 0.01 0.01 82 1013.5
20260506212030 62 333 4.3 6.1 0.00 0.01 0.01 82 1013.4
20260506211526 63 118 6.1 7.8 0.00 0.01 0.01 81 1013.4
20260506211024 63 74 6.1 7.8 0.00 0.01 0.01 82 1013.5
20260506210520 62 352 5.2 7.8 0.00 0.01 0.01 81 1013.4
20260506210017 62 345 5.2 7.8 0.00 0.01 0.01 81 1013.5
20260506205514 63 22 10.4 13.0 0.00 0.01 0.01 80 1013.6
20260506205009 63 17 9.6 13.0 0.00 0.01 0.01 80 1013.6
20260506204508 63 356 9.6 10.4 0.00 0.01 0.01 80 1013.5
20260506204004 63 326 7.0 10.4 0.00 0.01 0.01 81 1013.5
20260506203502 63 322 10.4 12.2 0.00 0.01 0.01 79 1013.5
20260506202958 63 337 12.2 18.2 0.00 0.01 0.01 79 1013.6
20260506202456 64 331 12.2 18.2 0.00 0.01 0.01 79 1013.5
20260506201952 64 28 5.2 7.8 0.00 0.01 0.01 79 1013.3
20260506201449 64 352 8.7 13.0 0.00 0.01 0.01 78 1013.2
20260506200941 64 350 9.6 10.4 0.00 0.01 0.01 78 1013.2
20260506200437 64 1 9.6 13.0 0.00 0.01 0.01 79 1013.0
20260506195933 64 310 7.8 8.7 0.00 0.01 0.01 79 1013.4
20260506195431 65 325 12.2 18.2 0.00 0.01 0.01 79 1013.6
20260506194927 65 330 11.3 13.0 0.00 0.01 0.01 78 1013.3
20260506194424 65 319 7.8 13.0 0.00 0.01 0.01 79 1013.2
20260506193921 66 351 11.3 16.5 0.00 0.01 0.01 78 1013.1
20260506193418 66 346 10.4 12.2 0.00 0.01 0.01 79 1013.0
20260506192914 67 338 11.3 14.8 0.00 0.01 0.01 78 1013.0
20260506192411 66 28 11.3 13.0 0.00 0.01 0.01 79 1012.7
20260506191908 67 358 10.4 13.0 0.00 0.01 0.01 79 1013.2
20260506191404 67 343 12.2 14.8 0.00 0.01 0.01 78 1012.9
20260506190901 68 320 9.6 13.0 0.00 0.01 0.01 80 1012.9
20260506190357 68 15 3.5 4.3 0.00 0.01 0.01 79 1012.8
20260506185854 68 317 7.0 8.7 0.00 0.01 0.01 80 1012.9
20260506185352 68 117 5.2 7.8 0.00 0.01 0.01 79 1013.1
20260506184848 69 349 11.3 12.2 0.00 0.01 0.01 78 1013.1
20260506184345 69 354 9.6 12.2 0.00 0.01 0.01 76 1012.9
20260506183843 69 23 5.2 7.8 0.00 0.01 0.01 78 1012.9
20260506183338 69 345 4.3 6.1 0.00 0.01 0.01 79 1012.9
20260506182836 69 16 4.3 6.1 0.00 0.01 0.01 78 1012.9
20260506182333 69 314 8.7 12.2 0.00 0.01 0.01 78 1012.7
20260506181830 69 234 2.6 2.6 0.00 0.01 0.01 78 1012.7
20260506181328 69 18 5.2 6.1 0.00 0.01 0.01 78 1012.7
20260506180825 69 171 5.2 6.1 0.00 0.01 0.01 80 1012.6
20260506180321 69 168 0.9 1.7 0.00 0.01 0.01 78 1012.6
20260506175817 69 119 1.7 1.7 0.00 0.01 0.01 80 1012.5
20260506175314 69 125 0.0 0.0 0.00 0.01 0.01 79 1012.4
20260506174812 68 79 5.2 7.8 0.00 0.01 0.01 80 1012.4
20260506174309 67 113 0.0 0.0 0.00 0.01 0.01 81 1012.6
20260506173806 67 16 3.5 4.3 0.00 0.01 0.01 81 1012.4
20260506173303 67 137 0.0 0.0 0.00 0.01 0.01 79 1012.6
20260506172800 67 132 4.3 7.8 0.00 0.01 0.01 81 1012.6
20260506172256 67 124 1.7 2.6 0.00 0.01 0.01 82 1012.6
20260506171754 66 49 5.2 8.7 0.00 0.01 0.01 81 1012.4
20260506171251 65 141 0.9 1.7 0.00 0.01 0.01 84 1012.7
20260506170749 64 132 3.5 4.3 0.00 0.01 0.01 84 1012.6
20260506170245 63 82 3.5 6.1 0.00 0.01 0.01 86 1012.6
20260506165743 63 81 1.7 2.6 0.00 0.01 0.01 86 1012.5
20260506165240 62 47 1.7 2.6 0.00 0.01 0.01 89 1012.3
20260506164737 61 111 0.0 1.7 0.00 0.01 0.01 92 1013.0
20260506164234 59 108 1.7 2.6 0.00 0.01 0.01 94 1012.1
20260506163731 58 110 1.7 1.7 0.00 0.01 0.01 95 1012.5
20260506163225 58 95 7.0 8.7 0.00 0.01 0.01 94 1013.0
20260506162722 58 105 1.7 2.6 0.00 0.01 0.01 95 1014.5
20260506162220 58 322 3.5 6.1 0.00 0.01 0.01 95 1014.5
20260506161717 58 0 6.1 7.8 0.00 0.01 0.01 95 1014.7
20260506161214 59 0 7.0 7.8 0.00 0.01 0.01 95 1015.0
20260506160712 59 357 10.4 18.2 0.00 0.01 0.01 95 1014.9
20260506160208 59 308 7.0 8.7 0.00 0.01 0.01 95 1015.5
20260506155706 59 23 11.3 13.0 0.00 0.01 0.01 95 1015.3
20260506155203 60 347 10.4 12.2 0.00 0.01 0.01 95 1014.7
20260506153305 61 352 7.8 10.4 0.07 0.01 0.01 95 1014.3
20260506152802 61 82 9.6 12.2 0.07 0.01 0.01 95 1014.0
20260506152259 62 355 8.7 12.2 0.00 0.00 0.00 94 1013.8
20260506151758 62 353 3.5 6.1 0.00 0.00 0.00 93 1013.6
20260506151254 62 344 2.6 6.1 0.00 0.00 0.00 93 1013.5
20260506150751 62 41 3.5 6.1 0.00 0.00 0.00 92 1013.1
20260506150248 62 319 8.7 12.2 0.00 0.00 0.00 92 1012.9
20260506145745 62 72 5.2 7.8 0.00 0.00 0.00 93 1012.6
20260506145241 63 113 1.7 2.6 0.00 0.00 0.00 93 1012.6
20260506144739 63 84 2.6 4.3 0.00 0.00 0.00 93 1012.7
20260506144236 63 94 4.3 6.1 0.00 0.00 0.00 93 1012.9
20260506143733 64 291 10.4 13.0 0.00 0.00 0.00 93 1012.3
20260506143231 64 20 7.0 8.7 0.00 0.00 0.00 93 1012.4
20260506142729 65 354 7.0 8.7 0.00 0.00 0.00 92 1011.9
20260506142227 65 3 7.8 8.7 0.00 0.00 0.00 92 1011.9
20260506141725 66 11 12.2 16.5 0.00 0.00 0.00 92 1011.8
20260506141223 66 80 2.6 4.3 0.00 0.00 0.00 92 1011.7
20260506140720 66 93 7.0 10.4 0.00 0.00 0.00 92 1011.8
20260506140217 67 330 8.7 12.2 0.00 0.00 0.00 92 1011.5
20260506135713 68 333 7.8 14.8 0.00 0.00 0.00 91 1011.3
20260506135210 69 346 5.2 7.8 0.00 0.00 0.00 90 1011.2
20260506134707 72 20 8.7 10.4 0.00 0.00 0.00 88 1011.0
20260506134203 77 141 0.9 1.7 0.00 0.00 0.00 90 1011.1
20260506133700 77 135 1.7 1.7 0.00 0.00 0.00 90 1010.9
20260506133157 76 146 1.7 1.7 0.00 0.00 0.00 91 1010.5
20260506132654 76 120 3.5 4.3 0.00 0.00 0.00 91 1010.5
20260506132151 76 131 5.2 6.1 0.00 0.00 0.00 91 1010.3
20260506131649 76 138 2.6 2.6 0.00 0.00 0.00 92 1010.3
20260506131145 76 160 2.6 2.6 0.00 0.00 0.00 92 1010.2
20260506130641 75 168 3.5 4.3 0.00 0.00 0.00 92 1010.3
20260506130139 75 133 4.3 4.3 0.00 0.00 0.00 93 1010.2
20260506125637 75 120 4.3 6.1 0.00 0.00 0.00 94 1009.9
20260506125134 74 144 1.7 2.6 0.00 0.00 0.00 95 1010.1
20260506124632 74 150 1.7 1.7 0.00 0.00 0.00 95 1010.0
20260506124130 74 138 1.7 1.7 0.00 0.00 0.00 95 1010.0
20260506123627 73 155 0.9 1.7 0.00 0.00 0.00 96 1010.1
20260506123126 73 152 0.0 0.0 0.00 0.00 0.00 96 1010.0
20260506122622 73 149 0.0 0.0 0.00 0.00 0.00 96 1010.0
20260506122120 73 148 0.0 0.0 0.00 0.00 0.00 96 1010.0
20260506121617 73 149 0.0 0.0 0.00 0.00 0.00 95 1009.9
20260506121114 73 149 0.0 0.0 0.00 0.00 0.00 95 1010.0
20260506120612 73 149 0.0 0.0 0.00 0.00 0.00 95 1009.9
20260506120109 73 149 0.0 0.0 0.00 0.00 0.00 95 1009.8
20260506115607 73 149 0.0 0.0 0.00 0.00 0.00 94 1009.8
20260506115105 74 149 0.0 0.0 0.00 0.00 0.00 94 1009.9
20260506114602 74 156 0.0 0.0 0.00 0.00 0.00 94 1009.8
20260506114100 74 156 0.0 0.0 0.00 0.00 0.00 94 1010.0
20260506113558 74 156 0.0 0.0 0.00 0.00 0.00 94 1010.0
20260506113055 74 156 0.0 0.0 0.00 0.00 0.00 94 1010.0
20260506112551 74 145 0.0 0.0 0.00 0.00 0.00 93 1009.9
20260506112049 74 144 0.0 0.0 0.00 0.00 0.00 93 1009.8
20260506111547 74 145 0.0 0.0 0.00 0.00 0.00 93 1010.0
20260506111044 74 145 0.0 0.0 0.00 0.00 0.00 93 1009.8
20260506110541 74 144 0.0 0.0 0.00 0.00 0.00 93 1009.7
20260506110038 74 155 0.0 0.0 0.00 0.00 0.00 93 1009.8
20260506105534 74 155 0.0 0.0 0.00 0.00 0.00 93 1009.7
20260506105032 74 155 0.0 0.0 0.00 0.00 0.00 92 1009.7
20260506104530 75 155 0.0 0.0 0.00 0.00 0.00 92 1009.7
20260506104027 75 164 0.0 0.0 0.00 0.00 0.00 92 1009.5
20260506103524 75 166 0.0 1.7 0.00 0.00 0.00 92 1009.5
20260506103021 75 161 0.0 1.7 0.00 0.00 0.00 92 1009.3
20260506102520 75 158 0.0 0.0 0.00 0.00 0.00 92 1009.3
20260506102016 75 153 0.0 0.0 0.00 0.00 0.00 91 1009.4
20260506101513 75 163 1.7 2.6 0.00 0.00 0.00 91 1009.1
20260506101010 75 161 0.0 0.0 0.00 0.00 0.00 91 1009.2
20260506100508 75 155 0.0 0.0 0.00 0.00 0.00 91 1008.9
20260506100006 75 152 1.7 1.7 0.00 0.00 0.00 91 1008.9
20260506095505 75 148 3.5 4.3 0.00 0.00 0.00 91 1009.0
20260506095000 75 159 0.9 1.7 0.00 0.00 0.00 91 1008.9
20260506094459 75 184 5.2 7.8 0.00 0.00 0.00 91 1008.8
20260506093956 75 148 1.7 2.6 0.00 0.00 0.00 91 1008.7
20260506093454 75 156 0.0 1.7 0.00 0.00 0.00 91 1008.7
20260506092951 75 164 0.0 0.0 0.00 0.00 0.00 91 1008.8
20260506092449 75 160 0.0 0.0 0.00 0.00 0.00 91 1008.7
20260506091945 75 186 1.7 2.6 0.00 0.00 0.00 91 1008.7
20260506091444 75 160 1.7 2.6 0.00 0.00 0.00 91 1008.8
20260506090941 75 158 1.7 2.6 0.00 0.00 0.00 91 1008.7
20260506090439 75 182 5.2 8.7 0.00 0.00 0.00 91 1008.7
20260506085935 75 149 3.5 6.1 0.00 0.00 0.00 91 1008.6
20260506085432 75 172 5.2 6.1 0.00 0.00 0.00 91 1008.5
20260506084928 75 140 0.0 0.0 0.00 0.00 0.00 91 1008.7
20260506084425 75 162 3.5 4.3 0.00 0.00 0.00 91 1008.8
20260506083921 75 186 2.6 2.6 0.00 0.00 0.00 91 1008.7
20260506083419 75 163 1.7 2.6 0.00 0.00 0.00 91 1008.7
20260506082916 75 221 2.6 4.3 0.00 0.00 0.00 91 1008.7
20260506082413 75 177 0.9 1.7 0.00 0.00 0.00 91 1008.7
20260506081908 75 162 0.9 1.7 0.00 0.00 0.00 91 1008.8
20260506081407 75 173 2.6 2.6 0.00 0.00 0.00 90 1008.9
20260506080904 75 186 1.7 2.6 0.00 0.00 0.00 90 1008.8
20260506080400 75 169 1.7 2.6 0.00 0.00 0.00 90 1008.8
20260506073344 75 247 5.2 7.8 0.00 0.00 0.00 91 1009.0
20260506072841 75 169 2.6 2.6 0.00 0.00 0.00 91 1009.1
20260506072339 75 173 4.3 6.1 0.00 0.00 0.00 91 1009.0
20260506071837 75 161 1.7 2.6 0.00 0.00 0.00 91 1009.0
20260506071335 75 176 1.7 2.6 0.00 0.00 0.00 91 1009.0
20260506070831 75 155 1.7 1.7 0.00 0.00 0.00 91 1008.9
20260506070328 75 156 4.3 4.3 0.00 0.00 0.00 91 1009.0
20260506062306 75 157 0.9 1.7 0.00 0.00 0.00 92 1008.6
20260506061801 75 171 1.7 1.7 0.00 0.00 0.00 92 1008.7
20260506061258 75 176 3.5 4.3 0.00 0.00 0.00 92 1008.8
20260506060757 75 144 2.6 4.3 0.00 0.00 0.00 92 1008.5
20260506060254 75 163 2.6 4.3 0.00 0.00 0.00 92 1008.6
20260506051225 75 177 7.0 10.4 0.00 0.00 0.00 92 1008.6
20260506050724 75 160 3.5 4.3 0.00 0.00 0.00 92 1008.7
20260506050221 75 166 1.7 1.7 0.00 0.00 0.00 92 1008.6
20260506044712 75 193 0.9 1.7 0.00 0.00 0.00 91 1008.7
20260506044209 75 141 3.5 7.8 0.00 0.00 0.00 91 1008.8
20260506043707 75 149 3.5 4.3 0.00 0.00 0.00 91 1008.7
20260506043204 75 159 3.5 4.3 0.00 0.00 0.00 91 1008.9
20260506042703 75 182 3.5 4.3 0.00 0.00 0.00 91 1008.7
20260506042201 75 173 3.5 4.3 0.00 0.00 0.00 90 1008.7
20260506041659 75 162 1.7 2.6 0.00 0.00 0.00 90 1008.7
20260506041155 75 155 1.7 1.7 0.00 0.00 0.00 90 1008.7
20260506040653 76 144 2.6 4.3 0.00 0.00 0.00 90 1008.6
20260506040150 76 168 2.6 4.3 0.00 0.00 0.00 90 1008.6
20260506035647 76 150 5.2 6.1 0.00 0.00 0.00 89 1008.4
20260506035143 76 158 1.7 2.6 0.00 0.00 0.00 89 1008.3
20260506034640 76 173 3.5 4.3 0.00 0.00 0.00 89 1008.2
20260506034137 76 152 1.7 1.7 0.00 0.00 0.00 89 1008.1
20260506033635 76 138 1.7 2.6 0.00 0.00 0.00 89 1008.1
20260506033131 76 174 4.3 6.1 0.00 0.00 0.00 89 1007.9
20260506032629 76 167 3.5 4.3 0.00 0.00 0.00 89 1008.1
20260506032126 76 166 4.3 4.3 0.00 0.00 0.00 89 1008.0
20260506031623 76 160 1.7 2.6 0.00 0.00 0.00 89 1007.8
20260506031119 76 165 1.7 2.6 0.00 0.00 0.00 89 1008.0
20260506030618 76 160 1.7 1.7 0.00 0.00 0.00 88 1007.8
20260506030115 76 154 4.3 6.1 0.00 0.00 0.00 89 1007.5
20260506025612 77 134 5.2 7.8 0.00 0.00 0.00 88 1007.4
20260506025107 77 155 4.3 4.3 0.00 0.00 0.00 88 1007.4
20260506024605 77 161 0.0 0.0 0.00 0.00 0.00 88 1007.4
20260506024101 77 149 1.7 2.6 0.00 0.00 0.00 88 1007.4
20260506023557 77 148 0.0 0.0 0.00 0.00 0.00 88 1007.1
20260506023055 77 162 3.5 4.3 0.00 0.00 0.00 87 1007.0
20260506022552 77 161 6.1 7.8 0.00 0.00 0.00 87 1007.0
20260506022050 77 154 2.6 4.3 0.00 0.00 0.00 87 1006.9
20260506021547 77 153 1.7 1.7 0.00 0.00 0.00 87 1007.0
20260506021044 77 157 1.7 2.6 0.00 0.00 0.00 86 1006.8
20260506020542 77 158 1.7 1.7 0.00 0.00 0.00 86 1006.6
20260506020039 78 141 2.6 2.6 0.00 0.00 0.00 86 1006.9
20260506015536 78 162 5.2 7.8 0.00 0.00 0.00 85 1006.8
20260506015033 78 156 1.7 2.6 0.00 0.00 0.00 85 1006.5
20260506014530 78 164 3.5 4.3 0.00 0.00 0.00 86 1006.4
20260506014026 78 137 2.6 2.6 0.00 0.00 0.00 85 1006.6
20260506013525 78 160 2.6 4.3 0.00 0.00 0.00 84 1006.6
20260506013021 78 152 2.6 4.3 0.00 0.00 0.00 84 1006.5
20260506012517 78 155 1.7 2.6 0.00 0.00 0.00 84 1006.2
20260506012014 78 164 1.7 1.7 0.00 0.00 0.00 84 1006.5
20260506011512 79 148 0.0 0.0 0.00 0.00 0.00 84 1006.5
20260506011008 79 146 1.7 1.7 0.00 0.00 0.00 83 1006.4
20260506010507 80 150 0.0 0.0 0.00 0.00 0.00 82 1006.4
20260506010002 80 171 2.6 2.6 0.00 0.00 0.00 81 1006.3
20260506005500 80 151 2.6 2.6 0.00 0.00 0.00 81 1006.3
20260506004955 80 136 3.5 4.3 0.00 0.00 0.00 81 1006.3
20260506004454 80 155 0.0 0.0 0.00 0.00 0.00 80 1006.3
20260506003949 81 163 1.7 2.6 0.00 0.00 0.00 79 1006.4
20260506003446 81 173 1.7 2.6 0.00 0.00 0.00 79 1006.3
20260506002942 81 156 1.7 1.7 0.00 0.00 0.00 79 1006.5
20260506002438 81 165 1.7 1.7 0.00 0.00 0.00 79 1006.5
20260506001934 81 167 0.0 1.7 0.00 0.00 0.00 79 1006.6
20260506001431 81 168 0.9 1.7 0.00 0.00 0.00 79 1006.4
20260506000929 81 174 3.5 4.3 0.00 0.00 0.00 78 1006.3
20260506000426 82 163 0.9 1.7 0.00 0.00 0.00 78 1006.5
20260505235923 82 167 1.7 2.6 0.00 0.00 0.00 78 1006.3
20260505235421 82 165 1.7 2.6 0.00 0.00 0.00 77 1006.4
20260505234917 82 175 1.7 2.6 0.00 0.00 0.00 78 1006.2
20260505234415 82 159 3.5 4.3 0.00 0.00 0.00 77 1006.2
20260505233911 82 159 2.6 2.6 0.00 0.00 0.00 76 1006.2
20260505233409 82 160 1.7 2.6 0.00 0.00 0.00 77 1006.1
20260505232907 82 235 5.2 7.8 0.00 0.00 0.00 76 1006.0